Showing default

HULIANWANG DIGUI-102, 66418

Orbit data source: Space-Track

HULIANWANG DIGUI-102, 66418 is a payload satellite owned by Zhongguo Xingwang (CN) in LEO that was launched on Mon, 10 Nov 2025 UTC via a CHANG ZHENG 12 launch vehicle from the Wenchang Satellite Launch Center (WSC). Payload-class satellites include a variety of spacecraft equipped with specific instruments for various scientific and technological missions. These include communications satellites like Starlink; space stations such as the ISS; scientific satellites like the Hubble; Earth observation satellites from companies like Planet Labs, Umbra, and HawkEye 360; GPS; miniature CubeSats for education and research; and military/defense satellites.

Loading next visibility...
Identifier
66418, 2025-258G
Orbit
LEO
Country
Flag of CNCN / PRC
Related business
Manufacturer
SECM
Mission
Operational Civil Communications
Bus & Motor
XINGWANG S, Unknown motor
Mass
~800 kg wet, ~800 kg dry
Launch date (UTC)
2025-11-10 (7 months ago)
Launch vehicle
CHANG ZHENG 12
Launch site
Wenchang Satellite Launch Center (WSC)
Object type
Payload
Rocket body
Debris
Shape & HBR
Box + 2 Pan, 1.1 m
Radar Cross Section
5.935 m², Large (>1 m²)

Expand to show TLE details & history
Last TLE update: 13 hours ago

TLE from 13 hours ago
0 HULIANWANG DIGUI-102
1 66418U 25258G   26171.34633201 -.00000088  00000-0  77182-4 0  9992
2 66418  50.0020 284.0976 0000955 153.3254 206.7667 13.29321442 30156
Epoch: 2026-06-20T08:18Z
TLE epoch observation values (Epoch: 2026-06-20T08:18:43.085Z)
Latitude
-0.00005°
Longitude
-109.14424°
Altitude
1,150.472 km
Speed
7.279 km/s
True Right ascension
18h 56m 23s
True Declination
0° 00' 00"
Sunlit
Object was in full shadow at epoch
Visualization orbit readout
Latitude
Unknown
Longitude
Unknown
Altitude
Unknown
Speed
Unknown
Apparent Right ascension
Unknown
Apparent Declination
Unknown
Sunlit
N/A
Visualization observer readout
Local Sidereal Time
08:33:30
Azimuth
Unknown
Elevation
Unknown
Doppler factor
Unknown
Orbital elements
Apogee altitude
1,150.748 km
Perigee altitude
1,149.31 km
Semi-major axis
7,528.166 km
Eccentricity
0.0001
Inclination
50.002°
RAAN
284.0976°
Arg. of periapsis
153.3254°
True anomaly
206.76177°
Mean anomaly
206.7667°
Eccentric anomaly
206.76424°
Mean motion
3.32284 °/min
Orbital period
108.34 mins
BSTAR
0.000077182
Loading maneuver chart data...
Computing Atmospheric mass density...
Loading historical data...
Loading historical data...
Loading historical data...
Loading historical data...
Loading historical data...
Loading historical data...
Loading historical data...

Documentation

Showing up to 5 results
|